Regional Weather Roundup
Issued by NWS

Home | Current Version | Previous Version | Graphics & Text | Print | Product List | Glossary On
Versions: 1 2 3 4 5 6 7 8 9 10 11 12 13 14 15 16 17 18 19 20 21 22 23 24 25 26 27 28 29 30 31 32 33 34 35 36 37 38 39 40 41 42 43 44 45 46 47 48 49 50
000
ASUS43 KLOT 300521
RWRIL

ILLINOIS REGIONAL WEATHER ROUNDUP
NATIONAL WEATHER SERVICE CHICAGO/ROMEOVILLE IL
1200 AM CDT MON MAR 30 2015

NOTE: "FAIR" INDICATES FEW OR NO CLOUDS BELOW 12,000 FEET WITH NO
SIGNIFICANT WEATHER AND/OR OBSTRUCTIONS TO VISIBILITY.

* THESE STATIONS ARE NOT UNDER NWS QUALITY CONTROL. THEY ALSO MAY NOT
  REPORT WEATHER SUCH AS PRECIPITATION OR FOG.

ILZ001-002-007-009-015-016-024-300600-
NORTHWEST ILLINOIS

CITY           SKY/WX    TMP DP  RH WIND       PRES   REMARKS
MOLINE         CLEAR     45  30  55 NW12      30.02R
STERLING*      FAIR      39  28  65 NW9       29.99R WCI  33
SAVANNA*       CLEAR     44  30  58 W6        29.99R
$$

ILZ003-004-008-010-011-017-018-300600-
NORTH CENTRAL ILLINOIS

CITY           SKY/WX    TMP DP  RH WIND       PRES   REMARKS
ROCKFORD       CLEAR     42  30  62 W15       29.96R
FREEPORT*      CLEAR     41  29  63 W14       29.98R
ROCHELLE*      CLEAR     38  31  74 W13       29.96R WCI  30
DE KALB*       CLEAR     38  30  72 W14       29.95R WCI  30
PERU*          CLEAR     40  33  78 W10       29.99S
$$

ILZ005-006-012>014-019>023-300600-
NORTHEAST ILLINOIS

CITY           SKY/WX    TMP DP  RH WIND       PRES   REMARKS
CHICAGO-OHARE  PTCLDY    40  33  76 W5        29.93R
CHICAGO-MIDWAY PTCLDY    43  34  70 W7        29.94R
AURORA         CLEAR     36  29  75 W9        29.95R WCI  29
LANSING*       MOCLDY    39  32  76 CALM      29.95R
JOLIET*        CLEAR     40  33  76 W5        29.96R
WAUKEGAN       PTCLDY    38  33  82 W3        29.91R
DUPAGE AIRPORT CLEAR     39  31  72 W10       29.93R WCI  32
KANKAKEE*      CLEAR     36  32  85 SW7       29.97S WCI  30
WHEELING       MOCLDY    42  34  73 W3        29.95R
MORRIS*        CLEAR     37  32  81 W10       29.96R WCI  30
ROMEOVILLE*    CLEAR     40  32  74 W10       29.95R
NORTHERLY ISL    N/A     44  34  67 SW5         N/A
$$

LMZ740>746-300600-
SOUTHERN LAKE MICHIGAN

STATION/POSITION SKY/WX   TEMP    WIND        PRES    VSBY  WAVE
                          AIR SEA DIR/SP/G                  HT/PER
                          (F)     (DEG/KT/KT) (MB)    (MI)  (FT/S)
HARRISON CRIB              44     280/ 10/ 11   N/A
BURNHAM HARBOR             43     280/  4/  9   N/A
CALUMET HARBOR             44     260/  2/  5 1012.2R
BURNS HARBOR               40     270/ 10/ 12 1013.9R
MICHIGAN CITY              38     280/  8/  9   N/A
$$

ILZ025>027-034>036-040-047-049-050-058-095>099-300600-
WEST-CENTRAL ILLINOIS

CITY           SKY/WX    TMP DP  RH WIND       PRES   REMARKS
QUINCY         FAIR      45  35  68 W7        30.08R
GALESBURG*     CLEAR     38  31  76 W9        30.04R WCI  31
MACOMB*        CLEAR     37  30  78 NW10      30.08R WCI  29
JACKSONVILLE*  CLEAR     45  36  70 W8        30.07R
PITTSFIELD*    CLEAR     48  37  65 W5        30.09R
$$

ILZ028>032-037-038-041>044-048-051>054-059>061-300600-
CENTRAL ILLINOIS

CITY           SKY/WX    TMP DP  RH WIND       PRES   REMARKS
PONTIAC        CLEAR     38  35  90 SW8       30.00R WCI  32
BLOOMINGTON    CLEAR     46  35  65 NW16      30.03R
DECATUR        CLEAR     49  39  68 W8        30.04R
PEORIA         CLEAR     47  32  56 W6        30.04R
LACON*         CLEAR     43  30  60 W8        30.01R
LINCOLN*       CLEAR     47  37  69 NW3       30.04R
SPRINGFIELD    CLEAR     43  36  76 W9        30.05R
TAYLORVILLE    CLEAR     43  37  81 W8        30.05S
$$

ILZ033-039-045-046-055>057-062-063-300600-
EAST-CENTRAL ILLINOIS

CITY           SKY/WX    TMP DP  RH WIND       PRES   REMARKS
CHAMPAIGN      CLEAR     37  35  92 NW6       30.02R WCI  32
DANVILLE*      PTCLDY    40  37  86 W6        29.98R
RANTOUL*       CLEAR     42  39  89 W3        30.01R
MATTOON        CLEAR     46  39  76 W8        30.02R
PARIS*         PTCLDY    45  41  86 W10       30.02R
$$

ILZ079-100>102-300600-
SOUTHWEST ILLINOIS

CITY           SKY/WX    TMP DP  RH WIND       PRES   REMARKS
ALTON          CLEAR     44  38  79 W8        30.08R
BELLEVILLE     CLEAR     45  41  86 VRB2      30.08R
CAHOKIA*       CLEAR     49  40  71 W5        30.09R
SPARTA*        CLOUDY    49  42  74 SW3       30.10R
$$

ILZ064>066-069>071-074>076-080>082-084>086-088>090-092>094-300600-
SOUTH-CENTRAL ILLINOIS

CITY           SKY/WX    TMP DP  RH WIND       PRES   REMARKS
CARBONDALE     CLOUDY    53  44  71 W8        30.10R
CAIRO*         CLOUDY    51  47  87 W5        30.10S
EFFINGHAM*     PTCLDY    45  38  76 SW7       30.07R
MARION         CLOUDY    54  45  71 SW5       30.10S
MT. VERNON     MOCLDY    48  39  71 W6        30.09S
CENTRALIA*     PTCLDY    47  40  76 SW8       30.08R
SALEM*         PTCLDY    50  42  74 SW7       30.08R
METROPOLIS*    CLOUDY    54  49  83 W6        30.08F
$$

ILZ067-068-072-073-078-083-087-091-300600-
SOUTHEAST ILLINOIS

CITY           SKY/WX    TMP DP  RH WIND       PRES   REMARKS
LAWRENCEVILLE  MOCLDY    50  43  77 W12       30.05R
FLORA*         MOCLDY    49  41  75 SW9       30.07R
FAIRFIELD*     CLOUDY    50  44  78 W5        30.07R
HARRISBURG*    CLOUDY    52  46  79 W7        30.10R
ROBINSON*      PTCLDY    48  42  79 W13       30.05R
CARMI*         CLOUDY    53  42  66 SW13      30.07R
$$

ABBREVIATIONS USED IN REMARKS
   TC - TEMPERATURE IN CELSIUS
  WCI - WIND CHILL INDEX
   HX - HEAT INDEX
  VSB - VISIBILITY
$$



USA.gov is the U.S. government's official web portal to all federal, state and local government web resources and services.